�ϑ��N����,2023/9/27,,,
�ϑ���,���c��L,,,
�ϑ��n�_,A6,,,
���x�v�ԍ�,11,,,
,,,,
����,�C��,����,����,���l
9:30:00,-999,-999,,
9:31:00,-999,-999,,
9:32:00,-999,-999,,
9:33:00,-999,-999,,
9:34:00,-999,-999,,
9:35:00,-999,-999,,
9:36:00,-999,-999,,
9:37:00,-999,-999,,
9:38:00,-999,-999,,
9:39:00,-999,-999,,
9:40:00,-999,-999,,
9:41:00,-999,-999,,
9:42:00,-999,-999,,
9:43:00,-999,-999,,
9:44:00,-999,-999,,
9:45:00,-999,-999,,
9:46:00,-999,-999,,
9:47:00,-999,-999,,
9:48:00,-999,-999,,
9:49:00,-999,-999,,
9:50:00,-999,-999,,
9:51:00,-999,-999,,
9:52:00,-999,-999,,
9:53:00,-999,-999,,
9:54:00,-999,-999,,
9:55:00,-999,-999,,
9:56:00,29.8,7,,
9:57:00,29.9,7,,
9:58:00,29.8,6,,
9:59:00,29.2,6,,
10:00:00,29.2,7,,
10:01:00,29.2,7,,
10:02:00,29.1,6,,
10:03:00,29.1,7,,
10:04:00,29,7,,
10:05:00,29,7,,
10:06:00,29,7,,
10:07:00,29.4,7,,
10:08:00,30.6,7,,
10:09:00,29.8,6,,
10:10:00,30,6,,
10:11:00,30,7,,
10:12:00,29.9,7,,
10:13:00,30,6,,
10:14:00,29.9,7,,
10:15:00,30,6,,
10:16:00,29.9,7,,
10:17:00,29.9,7,,
10:18:00,29.5,7,,
10:19:00,29.5,76,,
10:20:00,30,7,,
10:21:00,30,7,,
10:22:00,29.9,7,,
10:23:00,30,7,,
10:24:00,29.5,7,,
10:25:00,29.8,7,,
10:26:00,30,6,,
10:27:00,30,7,,
10:28:00,29.7,6,,
10:29:00,29.5,7,,
10:30:00,29.5,7,,
10:31:00,29.8,7,,
10:32:00,29.5,7,,
10:33:00,29.5,7,,
10:34:00,29.5,7,,
10:35:00,30,7,,
10:36:00,30.1,7,,
10:37:00,30.2,7,,
10:38:00,30.5,8,,
10:39:00,30.5,1,,
10:40:00,30.5,6,,
10:41:00,30,6,,
10:42:00,29.9,7,,
10:43:00,29.5,6,,
10:44:00,29.5,6,,
10:45:00,29.9,6,,
10:46:00,29.9,6,,
10:47:00,30,7,,
10:48:00,30,7,,
10:49:00,30,7,,
10:50:00,30,7,,
10:51:00,29.7,6,,
10:52:00,29.8,7,,
10:53:00,29.8,7,,
10:54:00,30.1,6,,
10:55:00,30.2,7,,
10:56:00,30,6,,
10:57:00,29.5,6,,
10:58:00,30,6,,
10:59:00,29.5,7,,
11:00:00,29.9,6,,
11:01:00,29.2,7,,
11:02:00,30,6,,
11:03:00,30,6,,
11:04:00,29.5,7,,
11:05:00,30,6,,
11:06:00,30,6,,
11:07:00,30,6,,
11:08:00,30,67,,
11:09:00,29.9,7,,
11:10:00,29.8,7,,
11:11:00,29.9,6,,
11:12:00,29.8,6,,
11:13:00,29.8,7,,
11:14:00,29.5,7,,
11:15:00,29.5,6,,
11:16:00,29.9,6,,
11:17:00,29.9,7,,
11:18:00,29.5,7,,
11:19:00,30,6,,
11:20:00,29.5,6,,
11:21:00,30,6,,
11:22:00,29.7,6,,
11:23:00,29.6,7,,
11:24:00,30,6,,
11:25:00,30,7,,
11:26:00,30.5,6,,
11:27:00,30.5,6,,
11:28:00,30.2,6,,
11:29:00,30.5,7,,
11:30:00,30.5,6,,
